Location: Newark
(43.0117°N, 7.5572°W)
Time: 20:47:31
(UTC+00:00)

X-37B - Pass Details

Date: 03 October 2020
Orbit: 382 x 392 km, 45.0° (Epoch: 15 October)

Event Time Altitude Azimuth Distance (km) Brightness Sun altitude
Rises 19:42:49 0° 240° (WSW) 2,257 5.2 -18.2°
Reaches altitude 10° 19:44:55 10° 235° (SW) 1,404 4.0 -18.6°
Enters shadow 19:47:38 50° 189° (S) 496 1.0 -19.1°
